Theta_e
307 307 307 308 308 309 310 310 311 311 310 309 306 310 302 301 298 310 313 315 312 303 295 297 295 292 294 299 298 299 297 296 297 295 297 295 297 295 294 295 294 294 294 293 294 294 290 292 289 291 291 292 296 296 300 300 299 299 293 296 294 295 289 288 285 287 287 289 289 289 289 291 289 289 287 288 289 290 289 287 286 285 281 281 278 279 284
306 307 307 307 308 308 309 310 311 311 309 308 309 304 300 301 302 304 312 314 311 300 289 289 290 290 294 295 295 299 299 297 295 295 296 295 295 294 294 295 298 295 296 295 294 296 289 293 293 290 291 289 297 298 299 300 298 297 294 294 297 291 287 289 284 282 282 284 285 286 286 288 285 285 290 291 291 289 289 286 285 284 286 283 280 280 286
305 306 306 307 307 308 309 309 310 310 310 309 307 300 302 301 302 303 307 311 308 295 297 292 289 289 288 289 290 293 295 299 299 296 295 298 296 295 294 296 297 296 297 296 297 298 296 290 294 293 292 293 296 299 300 301 298 300 300 299 302 294 289 289 284 282 280 279 279 279 280 286 287 286 288 290 291 290 287 285 287 283 287 286 285 285 288
305 305 306 306 307 307 308 309 309 310 309 309 305 303 301 297 289 299 301 305 304 302 303 298 293 290 288 287 289 292 291 297 301 301 297 299 298 297 297 297 296 294 295 293 294 295 298 295 289 293 290 294 293 296 300 300 299 298 298 297 298 288 289 292 290 288 286 287 286 286 288 283 284 286 288 289 290 292 291 289 286 284 284 284 288 289 290
305 305 305 306 306 308 308 308 309 309 309 308 304 302 300 299 293 293 291 300 301 299 301 297 295 290 293 286 291 289 291 294 297 302 295 300 299 297 296 295 293 293 293 292 293 295 294 295 293 292 293 290 291 293 296 299 299 297 296 297 292 286 288 290 292 291 292 293 292 289 290 287 288 287 286 288 289 289 288 287 285 288 284 284 290 289 288
305 304 304 305 306 308 308 308 308 309 308 308 305 296 300 292 295 300 301 294 289 293 295 298 295 295 294 289 294 290 290 292 290 298 299 300 301 296 296 295 295 295 293 293 289 292 292 292 291 293 290 290 293 294 295 295 296 296 295 297 295 289 288 291 291 290 293 294 294 291 290 290 290 289 289 287 288 288 287 288 290 288 286 286 291 289 289
305 304 304 304 305 306 307 307 307 309 308 306 300 293 298 298 295 296 298 295 294 293 296 299 296 294 293 291 292 289 290 290 294 294 295 296 296 299 291 293 294 295 296 294 291 292 288 289 293 290 288 291 289 289 292 293 292 292 292 294 288 291 289 291 290 289 291 292 293 291 289 290 288 288 288 289 288 288 288 289 290 290 289 292 292 291 291
304 304 303 304 304 305 307 306 307 307 308 305 298 296 294 293 294 289 295 294 292 293 295 295 297 293 294 289 291 291 291 290 294 296 295 291 294 299 295 296 297 296 296 295 292 293 294 293 290 293 293 290 290 290 292 290 290 290 291 293 291 291 289 290 287 287 288 290 291 288 289 289 288 288 288 289 289 288 289 289 289 290 290 291 291 290 290
303 303 303 303 303 304 306 306 306 306 307 299 296 296 298 297 295 297 292 290 291 292 292 293 293 291 293 290 292 292 292 291 295 295 299 296 294 296 295 297 297 297 296 296 296 298 297 296 296 294 295 291 294 293 291 294 289 289 288 289 288 290 286 286 287 286 287 289 287 286 287 287 287 288 289 289 288 285 286 287 290 289 288 289 289 287 288
302 302 303 303 303 304 305 306 306 306 306 299 299 294 298 297 298 297 295 287 293 292 290 292 292 286 290 292 293 292 292 294 295 292 297 299 300 298 298 298 297 296 296 295 297 300 299 298 299 298 297 297 296 298 295 296 293 288 290 288 288 288 288 286 286 286 286 290 287 286 286 285 284 286 290 291 291 291 290 290 290 290 292 288 287 288 294
302 302 302 303 303 303 304 305 306 306 304 297 296 296 296 295 294 294 294 285 287 289 291 289 289 290 293 292 291 293 293 294 295 290 289 297 298 301 300 298 296 294 295 299 300 299 299 298 296 297 298 298 296 296 296 295 295 293 290 287 286 287 287 288 288 286 287 288 286 287 284 279 282 293 296 295 292 292 289 289 290 291 291 290 293 294 294
301 301 302 302 303 303 303 304 305 305 304 302 301 298 299 299 296 294 287 284 285 287 288 288 289 290 291 292 292 292 292 293 293 296 292 294 297 299 299 298 298 291 298 298 299 299 298 297 298 298 294 294 296 296 295 294 294 294 294 292 287 287 287 287 287 284 285 286 285 283 278 281 290 288 290 295 296 295 293 293 294 294 292 292 291 291 292
300 300 301 301 302 302 303 303 305 305 305 303 301 296 300 301 297 292 288 286 285 285 285 286 289 291 292 293 292 292 294 295 295 295 295 295 292 294 298 298 297 298 298 300 300 300 295 291 291 288 288 288 290 293 293 294 294 294 294 295 291 288 287 287 285 286 284 281 284 277 280 287 287 288 284 284 287 287 288 289 292 294 294 293 291 293 294
300 300 301 300 301 302 302 302 304 304 305 304 300 299 300 299 295 292 289 285 285 286 286 286 287 286 288 290 291 291 293 291 291 294 292 292 293 294 292 291 292 291 290 298 297 295 289 289 289 289 287 290 287 287 289 291 292 292 292 293 295 291 288 288 285 288 281 284 284 284 288 287 289 289 283 286 287 286 288 285 289 293 294 293 293 294 294
299 300 300 300 300 301 302 302 303 304 304 304 301 300 300 300 299 294 293 291 285 285 287 284 285 286 289 288 289 288 288 287 288 288 289 288 289 290 291 290 290 291 291 296 291 292 289 287 284 285 285 284 281 283 287 287 288 288 291 293 294 293 288 288 285 284 287 284 282 282 282 280 286 289 285 290 290 290 290 289 288 292 290 292 293 293 293
299 300 300 299 300 301 301 301 302 303 303 303 301 299 300 301 301 299 295 289 287 283 285 290 291 288 286 287 289 288 287 287 287 287 286 287 287 288 287 289 289 291 292 293 291 290 288 286 284 285 282 284 286 284 280 285 284 285 285 287 289 291 293 290 287 285 284 283 281 282 280 284 288 285 284 283 281 288 287 287 285 287 282 288 292 292 293
299 299 299 300 299 300 301 301 301 301 303 303 298 298 297 302 299 297 294 291 288 285 291 292 291 289 285 285 287 287 287 286 287 285 283 285 286 286 287 287 287 291 292 291 289 289 286 286 286 286 286 285 284 283 284 282 281 280 284 286 287 287 288 288 285 284 285 284 282 281 285 286 285 282 283 284 280 287 289 279 281 286 283 282 283 289 290
299 299 299 299 300 300 300 301 300 301 302 303 300 297 296 301 301 300 293 290 286 286 286 292 290 287 286 286 285 287 288 286 285 286 285 285 284 285 286 287 286 289 291 289 288 288 286 286 284 285 284 286 286 287 281 283 279 278 278 283 282 284 284 286 283 285 285 285 283 285 285 287 284 283 282 281 281 288 283 280 285 283 280 282 283 285 284
298 299 299 299 299 299 300 300 301 300 301 301 300 297 296 298 299 300 295 290 289 285 288 291 293 291 289 290 286 287 287 289 288 286 282 284 283 286 287 286 289 286 288 285 288 286 286 285 288 286 285 284 285 283 287 283 280 279 283 281 282 284 285 283 286 284 284 285 282 284 286 287 285 281 282 282 288 282 282 282 279 278 281 283 283 283 283
298 298 298 298 299 299 299 300 300 300 300 300 300 293 295 299 300 300 295 289 288 287 289 287 290 289 288 288 286 285 284 286 286 286 286 283 286 287 287 284 286 287 285 287 284 287 286 284 286 286 285 285 285 287 283 282 283 280 282 285 284 284 283 280 282 284 283 282 282 281 278 286 284 285 284 285 284 284 282 281 280 279 280 282 284 283 283
297 297 298 298 298 298 299 299 300 300 300 300 300 295 293 296 297 298 299 296 288 286 288 291 289 291 289 287 291 291 289 287 288 286 287 286 289 288 281 282 286 286 283 286 282 284 286 285 285 284 286 287 286 286 280 284 280 283 282 283 282 287 283 283 284 287 280 282 279 281 285 284 282 285 285 283 285 286 282 284 282 281 280 281 282 284 285
297 297 298 298 298 298 298 299 299 299 300 300 300 296 292 296 297 298 297 296 291 287 287 288 288 290 291 291 291 291 291 292 294 294 288 285 287 286 286 285 285 284 285 286 283 283 282 283 285 281 282 281 285 281 285 282 280 279 279 282 283 288 284 285 282 286 285 283 284 282 281 283 282 282 283 284 284 284 283 285 285 281 282 282 284 284 285
297 297 297 297 297 297 298 298 298 299 299 300 298 294 292 294 294 297 296 290 290 290 289 285 287 288 291 290 289 288 286 289 292 291 292 288 285 285 284 285 285 286 284 286 285 285 284 284 279 285 281 282 284 282 281 282 280 281 280 284 282 282 283 284 283 281 282 283 283 284 282 282 282 283 283 283 283 283 284 284 286 284 284 283 283 283 285
296 296 296 297 297 297 297 298 298 298 299 300 299 294 293 294 295 295 292 290 286 285 287 287 286 284 286 288 288 287 289 288 290 291 292 293 286 284 285 285 287 286 284 286 287 286 285 284 283 285 280 284 285 280 281 280 279 282 280 281 282 282 283 283 282 284 284 281 283 283 284 284 284 284 285 284 283 284 284 284 283 283 282 282 281 283 285
295 296 296 296 296 297 297 297 297 298 298 299 298 297 296 293 295 295 288 284 284 284 281 284 285 290 288 289 289 287 288 289 292 290 290 291 292 288 286 287 288 287 286 286 286 286 286 283 283 281 280 285 286 279 285 282 280 284 278 280 281 280 285 283 283 283 283 281 280 280 281 282 283 284 284 285 285 285 284 282 280 280 280 281 281 282 282
295 295 296 296 296 296 297 297 297 297 298 299 298 294 293 293 296 296 292 290 287 285 282 281 284 288 287 288 285 287 288 290 289 289 289 291 291 291 287 287 286 287 286 286 286 286 285 282 281 281 282 282 288 281 280 282 282 284 282 278 284 283 286 279 284 280 279 280 280 279 282 284 285 284 284 284 285 284 284 281 279 279 280 280 280 280 281
295 295 296 296 296 296 296 296 297 297 298 299 297 295 294 294 296 294 290 287 285 282 283 282 284 282 283 285 287 287 289 290 289 289 288 288 288 289 289 288 286 286 286 284 285 285 283 281 283 281 283 281 284 280 282 280 282 280 278 281 282 282 277 281 282 278 278 279 281 281 282 282 285 286 286 286 285 284 282 280 280 279 279 279 280 279 279
295 295 295 295 295 296 296 296 296 297 298 298 297 295 295 294 294 296 295 292 288 282 283 283 281 281 283 282 286 287 289 289 289 288 287 287 287 288 288 287 286 285 284 285 282 282 281 282 279 283 281 280 282 278 281 281 282 279 279 280 282 281 282 283 281 282 280 283 282 285 286 285 286 288 288 286 285 283 282 281 280 279 279 279 279 279 279
295 294 295 295 295 295 296 296 296 296 297 297 291 291 292 294 296 297 296 296 292 285 285 284 286 283 279 282 288 286 288 288 287 287 286 286 287 287 287 286 285 285 285 285 285 284 282 282 284 281 280 284 282 277 281 276 277 278 282 283 283 283 285 286 285 282 281 284 283 284 283 284 284 285 286 286 285 283 282 281 280 279 279 278 278 279 279
295 295 295 295 295 295 295 295 296 296 296 291 288 284 284 286 295 295 297 296 293 288 283 281 278 281 283 280 278 285 286 287 286 285 285 285 285 285 286 286 284 285 282 283 283 279 283 282 282 282 282 283 281 281 277 275 276 279 284 283 285 284 283 286 286 285 283 282 283 284 284 285 283 283 285 285 284 283 282 281 279 278 279 279 278 278 278
294 294 294 295 295 295 295 295 296 295 295 289 284 282 280 278 286 296 298 296 295 289 284 285 280 284 278 283 283 283 285 286 284 284 284 285 284 284 284 283 281 284 280 281 280 280 283 278 280 280 283 283 284 279 275 274 271 274 277 281 284 284 284 284 285 285 283 282 283 283 282 282 278 280 282 282 282 282 281 278 279 280 279 278 278 278 277
294 294 294 295 295 295 295 295 296 295 292 287 284 283 285 286 291 294 298 297 294 287 284 280 281 278 278 282 281 284 285 286 285 284 285 285 282 283 281 283 282 283 285 276 277 276 274 280 280 280 280 285 284 277 277 272 272 274 278 280 281 283 284 281 281 281 282 283 282 280 280 279 278 282 281 281 281 280 281 279 279 279 279 277 276 276 275
294 294 295 295 295 295 295 296 296 294 289 292 295 297 297 295 296 295 296 294 291 285 286 283 277 280 279 278 282 281 284 284 282 283 281 285 282 282 278 282 279 280 289 281 275 274 276 277 278 277 280 282 280 278 274 274 277 278 279 281 280 280 279 278 279 280 281 282 284 282 279 280 279 278 276 278 279 279 278 278 276 277 277 277 276 277 276
294 295 295 295 295 295 295 295 296 295 294 288 283 285 290 296 296 296 296 292 286 285 285 281 279 276 275 282 275 281 285 281 280 283 278 283 281 282 277 280 278 279 275 278 278 277 273 278 272 273 276 272 276 272 270 276 278 278 279 277 278 277 276 276 277 278 279 280 278 278 280 278 276 275 276 277 275 275 276 276 277 277 274 275 275 275 274
294 294 294 294 294 295 294 294 290 287 284 284 286 288 291 295 296 296 294 287 283 281 281 281 282 276 275 274 275 280 284 282 278 282 279 280 282 277 277 275 274 274 276 282 274 273 274 274 278 274 271 274 274 269 276 274 276 278 276 276 275 275 274 276 277 277 276 275 275 275 275 276 277 275 276 275 275 275 276 274 275 276 276 274 275 274 272
292 293 293 293 293 292 289 289 285 284 281 282 283 292 295 296 296 294 290 288 285 281 281 280 281 276 276 272 273 279 285 280 282 280 280 279 277 280 276 272 271 275 277 274 270 273 271 279 277 270 273 273 273 277 275 275 276 277 277 277 276 278 278 279 277 274 272 272 272 273 274 275 277 275 274 274 274 273 274 274 272 273 275 275 273 273 272
292 292 293 292 289 285 282 283 286 285 282 287 290 295 295 293 287 288 287 286 284 285 280 279 277 277 278 275 279 280 283 274 282 279 279 276 276 279 275 272 270 277 272 271 271 270 275 281 272 269 270 273 275 278 277 276 277 276 275 277 278 277 277 277 277 276 274 272 271 272 272 273 272 273 274 274 274 272 272 273 273 274 273 274 272 272 272
292 291 284 282 281 278 278 282 282 283 292 292 294 286 283 285 281 284 283 282 284 284 279 281 277 279 278 278 272 282 282 278 282 276 276 278 278 273 274 272 272 278 267 271 271 279 274 272 270 270 270 277 277 277 278 276 277 277 278 277 277 276 276 276 277 276 275 272 272 271 270 271 273 271 274 273 272 272 274 273 273 271 272 273 273 273 271
290 285 283 282 279 276 276 275 288 293 290 288 286 280 278 280 280 277 275 279 282 277 281 281 278 282 280 277 276 285 281 279 277 278 274 281 276 273 277 270 275 275 270 271 271 279 270 270 270 269 272 272 274 277 276 277 275 273 273 274 275 275 275 276 277 277 276 276 277 276 276 275 275 275 274 274 272 272 270 270 271 270 271 272 271 269 269
282 280 280 279 279 279 285 287 295 290 286 279 278 274 269 277 276 271 281 275 274 279 282 276 283 281 280 278 277 276 285 280 275 275 276 278 283 276 276 267 272 275 269 272 272 277 271 268 269 267 270 276 276 276 276 274 271 266 265 265 265 266 267 270 268 266 272 270 269 268 266 269 274 276 275 274 273 272 269 268 267 267 268 268 267 267 264
281 280 279 276 279 282 283 286 282 280 280 277 274 272 268 266 271 275 276 272 274 274 281 279 282 278 281 279 281 277 282 280 278 280 277 272 279 279 274 272 280 269 269 271 274 270 268 264 268 267 273 272 273 273 274 269 265 262 261 261 263 264 266 265 263 263 267 268 266 263 262 261 261 261 265 269 270 269 267 264 262 261 261 262 262 260 260
282 281 280 283 283 281 280 281 279 275 272 274 272 267 270 271 270 267 270 270 271 276 278 279 275 279 277 280 279 279 276 277 279 278 275 272 281 274 273 272 273 269 268 272 272 268 269 263 266 265 269 264 263 261 264 263 260 259 259 260 261 263 263 263 262 260 260 263 261 259 258 257 256 257 256 259 260 260 261 260 258 258 257 257 257 257 258
291 289 286 279 278 274 279 275 275 273 269 268 267 264 266 264 266 269 271 274 270 272 274 277 275 282 278 280 276 277 278 282 278 278 276 274 281 276 272 270 272 268 272 274 273 273 268 266 264 271 266 260 258 256 255 255 257 258 259 260 260 262 262 261 259 257 257 256 257 256 256 255 255 255 256 256 256 255 255 255 255 255 255 254 254 255 254
285 284 281 277 274 273 276 268 277 271 268 269 268 264 264 263 264 262 264 266 268 272 274 276 278 279 275 280 279 279 280 281 284 277 274 277 273 273 275 270 271 275 276 270 273 270 271 271 273 267 259 258 255 255 254 255 255 257 258 259 259 260 262 262 261 260 259 258 257 257 256 256 255 255 254 254 255 255 254 254 254 254 253 253 254 254 254
280 279 275 272 270 275 273 267 275 270 266 267 270 265 266 265 266 265 269 271 273 272 275 276 277 279 277 276 277 279 282 277 285 276 273 276 272 275 271 271 274 273 270 271 271 271 270 271 265 259 261 257 255 254 254 254 254 254 257 257 257 257 259 259 259 258 257 256 256 256 255 255 254 253 252 252 252 253 253 253 252 254 254 254 254 254 254
278 275 273 269 267 271 270 266 266 264 267 269 266 265 267 268 267 266 269 269 270 271 276 276 274 277 277 276 278 277 279 278 275 275 278 276 273 271 273 275 273 268 269 270 268 269 271 274 265 257 254 253 253 253 253 253 253 254 255 254 255 255 255 256 257 257 257 256 256 255 254 254 253 253 252 252 251 251 251 251 252 253 253 254 253 253 252
275 275 273 273 269 269 270 264 264 266 266 265 263 267 269 269 267 268 266 268 272 276 277 273 276 279 277 274 275 274 275 277 274 277 276 271 271 274 275 271 268 271 268 267 268 267 273 262 253 252 251 252 252 252 252 253 253 253 253 254 254 254 254 254 254 255 255 255 255 254 254 254 253 253 253 251 251 250 250 250 251 252 252 252 252 252 252
273 274 272 266 267 267 267 265 261 261 261 263 263 262 265 265 269 269 267 264 271 276 277 277 275 277 275 276 276 275 274 274 274 272 274 274 273 266 269 268 268 271 270 269 271 268 258 251 252 251 251 251 251 250 251 251 252 251 252 252 253 252 253 252 252 253 253 253 253 252 252 252 251 251 251 250 250 250 250 250 250 250 251 251 251 252 252
272 268 267 265 262 263 263 263 267 268 263 261 261 262 265 269 267 262 263 264 270 277 277 278 277 278 273 277 274 275 272 275 271 271 272 268 268 267 267 263 268 266 267 262 260 250 252 252 252 251 251 251 251 249 250 250 251 250 251 251 251 252 252 252 252 252 252 251 251 251 250 251 250 250 250 251 250 250 250 250 250 250 250 250 251 251 251
268 264 261 260 263 264 262 262 266 264 259 259 260 259 260 263 263 261 263 262 265 273 276 279 279 275 273 273 269 272 271 271 271 273 268 268 268 269 268 264 266 269 263 251 252 251 251 251 252 250 251 250 250 249 249 249 250 250 250 251 251 251 251 252 251 252 251 251 250 250 251 251 250 251 251 250 250 250 250 250 249 249 249 250 251 251 251
266 261 258 257 258 258 257 264 263 262 262 258 257 256 257 261 262 263 261 260 260 269 272 270 273 272 270 270 270 267 268 274 271 270 270 267 262 265 266 269 258 247 249 250 250 251 251 250 250 250 249 249 249 249 249 249 250 250 250 251 251 251 251 251 251 251 250 250 251 251 251 250 251 250 251 251 251 251 251 250 249 248 249 249 249 250 250
264 260 258 258 256 255 254 258 259 257 257 257 256 256 257 259 258 257 260 260 264 272 270 270 270 268 269 268 270 271 272 270 269 268 261 255 252 258 257 251 250 251 250 250 251 251 251 250 250 249 249 249 249 249 249 249 249 249 249 249 250 251 251 251 251 251 250 250 250 250 250 250 251 252 253 253 253 252 251 249 249 248 248 248 247 247 247
Wind_Speed
17 16 15 15 15 14 11 11 12 10 8 5 2 6 4 6 6 1 17 20 24 15 15 13 13 10 12 4 3 3 2 10 4 3 7 10 11 6 7 7 6 6 5 6 9 12 6 13 11 6 9 8 12 5 15 11 15 14 6 5 1 5 3 3 1 0 2 2 2 4 4 3 1 0 2 4 12 12 10 6 4 5 1 3 2 6 8
18 17 16 15 15 14 12 11 12 9 3 5 2 7 6 4 6 1 9 23 21 19 14 13 10 6 8 11 12 6 2 4 9 8 9 10 9 13 8 7 9 5 6 4 10 12 6 10 15 9 5 5 9 8 14 17 11 12 8 11 9 5 4 7 2 1 0 1 4 2 4 2 3 5 9 12 4 2 3 4 2 3 14 7 4 14 15
20 18 17 16 15 14 13 12 12 9 8 3 5 4 3 2 1 4 4 10 17 16 12 13 13 14 11 12 16 13 10 5 9 14 11 8 9 6 13 14 2 6 3 8 6 13 17 4 12 7 7 6 3 12 15 17 13 9 9 13 15 8 7 9 7 11 12 10 9 7 4 11 5 2 3 7 12 11 3 5 8 10 9 12 9 17 8
21 20 18 17 16 14 13 12 12 10 7 3 2 4 3 7 5 5 6 7 7 12 11 11 12 13 10 10 13 16 16 8 8 10 11 12 10 13 6 5 4 3 3 4 4 8 14 12 2 9 5 4 1 6 16 17 11 10 12 7 10 3 4 11 12 13 14 15 4 4 8 5 6 10 13 14 14 13 11 6 6 16 4 8 18 19 16
20 21 19 18 16 14 13 11 11 11 6 2 3 4 4 1 8 4 7 5 14 10 12 12 11 12 12 9 8 17 22 14 5 9 4 9 11 10 15 7 6 8 7 6 9 8 4 4 3 8 9 2 2 4 9 13 14 15 7 10 6 4 4 12 13 15 18 17 13 10 17 15 16 14 13 14 14 15 16 15 20 6 5 17 19 5 12
18 21 21 18 17 15 13 11 11 12 8 4 2 5 4 8 2 9 5 7 5 11 13 17 16 15 16 8 6 14 19 16 12 7 12 6 8 7 7 15 15 15 17 11 8 7 9 5 8 5 2 4 0 3 3 4 1 8 5 11 8 7 8 11 12 16 19 18 18 13 13 13 14 17 16 15 17 16 21 24 21 8 12 20 19 11 17
19 20 21 19 17 16 14 12 10 10 7 6 2 4 3 4 3 3 2 9 3 9 0 14 21 23 21 11 16 12 16 18 20 10 7 10 5 9 7 15 23 23 16 11 9 11 7 13 14 6 4 7 5 3 2 2 4 1 3 4 0 4 7 9 11 16 16 19 17 7 13 6 4 10 14 16 19 24 27 25 17 14 15 20 24 20 18
18 19 20 20 18 15 14 13 11 9 8 6 5 5 5 4 5 3 2 2 2 3 6 6 13 17 20 13 16 15 18 21 16 9 8 9 16 12 16 16 14 15 15 15 15 15 18 17 14 11 8 1 3 6 6 5 1 1 5 4 2 4 6 7 4 7 15 19 12 4 9 7 7 8 12 18 23 24 21 13 11 17 21 26 22 18 23
19 18 19 19 18 15 14 13 11 10 5 4 4 3 6 2 1 3 3 4 3 3 3 5 7 5 12 17 13 13 18 21 18 17 15 18 14 15 20 21 13 8 12 14 16 16 16 18 16 3 9 11 7 9 4 8 9 5 2 1 1 3 5 2 5 8 14 14 7 5 5 5 7 12 17 23 20 9 6 13 20 14 19 21 15 17 21
18 18 16 18 19 16 15 13 11 9 9 4 2 6 2 0 2 3 1 4 3 10 3 4 5 9 4 6 14 12 21 17 11 8 9 12 11 10 20 22 13 12 14 16 21 19 7 2 1 5 4 2 5 6 5 13 12 8 8 3 7 8 5 5 5 10 14 16 9 9 6 2 6 17 30 26 16 13 11 13 12 18 18 13 15 22 21
14 18 17 14 15 17 16 13 12 11 7 7 4 3 1 4 3 2 1 2 3 4 7 7 10 3 5 9 7 5 6 7 8 12 3 9 16 10 8 14 13 10 15 14 4 5 5 5 3 3 4 4 4 3 6 5 8 12 12 4 2 3 6 9 6 11 12 11 9 7 5 11 16 20 11 15 19 19 19 18 20 19 14 16 19 20 18
12 16 17 14 14 16 16 14 13 13 8 5 4 4 2 1 2 3 4 6 4 2 5 6 11 5 9 11 13 11 11 10 12 11 10 4 5 9 9 5 6 10 1 5 7 6 7 3 5 6 8 4 3 4 6 8 5 4 10 12 7 9 7 6 3 3 10 3 9 6 15 18 11 4 4 9 18 19 20 22 19 18 18 19 19 19 20
11 14 17 14 12 14 15 15 13 12 11 5 5 7 3 1 2 2 4 3 5 2 2 4 4 6 7 11 12 15 14 11 6 5 7 7 3 3 5 9 11 4 2 4 8 5 5 3 1 1 2 4 3 2 7 7 9 8 6 7 9 9 11 5 2 3 2 1 7 9 12 5 4 5 1 1 4 2 6 11 18 20 20 20 22 24 23
12 13 15 14 12 11 13 16 16 13 13 8 5 5 4 3 4 2 3 2 3 3 3 5 3 5 2 7 11 10 10 7 5 5 6 2 4 5 1 2 0 2 2 0 4 6 1 2 7 3 3 3 1 2 9 13 11 12 11 11 11 13 6 7 7 7 9 7 12 16 6 14 12 11 3 6 6 6 11 11 15 19 18 16 16 20 20
15 12 12 15 13 10 11 14 16 15 12 10 4 3 4 5 5 2 2 3 4 1 6 7 4 5 5 3 2 5 5 5 8 6 3 2 2 1 2 1 0 1 2 4 1 2 5 3 4 6 2 6 7 7 3 5 2 5 14 16 13 11 12 7 10 5 11 11 11 5 5 12 19 6 2 7 5 7 7 8 13 10 7 12 15 19 20
15 14 13 14 14 12 12 13 15 15 13 10 4 3 4 5 5 5 5 3 4 7 7 9 6 5 4 4 4 6 5 6 6 4 3 3 4 1 1 0 1 1 0 1 3 4 4 6 5 7 7 8 2 4 4 3 2 0 3 2 7 7 11 10 15 6 7 9 9 9 10 13 4 1 3 0 2 7 5 4 13 3 1 7 14 19 19
15 15 15 14 14 13 12 13 14 15 13 10 5 4 6 5 7 6 5 4 4 6 1 12 5 6 4 2 1 3 2 4 4 5 4 6 5 3 1 1 1 2 3 4 2 4 5 6 3 4 1 3 5 6 5 3 4 1 3 3 5 11 8 6 8 10 9 9 10 11 6 9 2 4 0 2 1 5 7 2 8 2 3 3 3 12 11
16 16 15 15 14 13 13 13 14 15 14 12 6 4 5 3 6 7 5 4 3 5 3 8 9 5 7 6 5 2 3 3 2 1 1 0 4 3 3 2 2 1 1 6 3 6 6 6 10 8 9 2 2 5 8 8 5 6 7 11 7 6 3 9 15 13 15 15 9 5 6 3 2 5 4 2 2 5 6 14 1 1 4 4 3 5 3
15 15 15 15 15 14 13 13 12 15 15 12 4 4 6 7 5 6 3 2 5 6 3 6 6 8 2 3 3 3 3 7 7 5 3 1 4 3 7 2 2 2 3 6 4 5 6 6 2 2 5 3 2 7 4 7 6 2 8 7 0 4 3 1 4 11 12 12 12 11 6 3 5 1 6 3 6 7 11 1 2 2 3 3 2 3 2
16 15 15 14 14 14 14 14 14 13 14 15 7 5 3 2 3 6 8 5 2 6 2 5 4 8 3 7 7 5 2 2 3 5 6 6 2 8 4 2 1 2 1 2 6 2 5 7 6 2 5 5 6 3 1 2 3 9 5 6 9 12 9 8 10 5 1 1 9 3 8 2 6 10 3 1 5 3 3 2 1 4 3 0 1 2 3
16 15 15 15 14 15 15 15 14 14 13 15 10 5 6 4 6 3 5 5 1 6 7 3 1 7 5 5 8 12 13 11 10 7 5 5 8 7 7 5 8 7 7 7 9 6 5 5 5 4 2 3 4 3 5 5 2 4 5 5 3 4 6 4 7 7 6 8 9 8 3 7 2 2 8 5 3 3 5 4 0 1 2 1 0 1 2
17 16 15 15 15 15 15 15 14 14 14 14 10 5 7 3 3 3 1 2 6 5 2 2 1 3 3 2 3 4 5 7 9 7 9 6 4 4 2 2 3 4 2 2 2 1 1 2 2 3 3 2 2 4 1 6 6 2 4 1 3 5 6 2 6 2 6 4 2 0 2 2 1 1 1 0 0 1 3 1 1 2 2 2 2 2 3
17 17 16 16 16 16 15 15 15 14 14 14 8 5 8 1 2 2 2 4 2 2 1 2 1 0 0 1 1 0 2 1 2 4 5 8 3 1 2 5 2 1 0 1 3 2 2 3 4 3 2 1 6 4 1 1 1 4 7 4 2 3 2 0 6 1 1 1 2 1 1 2 2 1 2 2 0 0 1 3 0 1 2 2 3 3 4
18 17 17 16 16 16 16 16 15 15 15 14 9 5 5 2 3 4 2 1 1 3 2 3 3 6 9 13 4 1 0 0 2 2 1 5 8 2 1 2 1 2 1 1 1 3 2 2 3 1 3 3 5 3 7 6 5 3 2 1 0 1 0 1 3 2 5 3 2 1 1 2 3 4 4 2 2 2 1 1 1 1 2 3 2 5 5
18 18 17 17 17 16 16 16 16 16 15 15 10 6 6 3 3 6 5 4 3 5 5 3 9 3 2 1 6 2 4 3 2 2 3 2 6 8 7 3 2 4 5 4 1 4 2 3 1 1 4 4 4 3 1 4 3 3 4 3 2 3 3 4 1 3 3 1 0 3 3 5 6 3 2 3 2 2 0 2 3 4 3 4 3 4 4
18 18 17 17 17 17 17 16 16 16 15 15 9 5 7 7 4 6 4 2 1 1 5 4 4 1 1 5 3 3 4 6 4 3 2 2 2 5 10 4 4 3 5 2 2 4 2 2 1 1 3 3 2 3 1 1 2 1 4 5 3 2 5 3 3 4 0 3 4 3 1 4 6 5 5 6 5 3 1 2 3 3 5 5 4 3 3
17 17 17 17 17 17 17 18 17 16 15 13 7 4 5 5 4 8 6 6 3 4 4 6 1 1 0 4 1 3 4 7 5 6 5 5 8 6 8 7 9 4 5 4 3 3 2 2 1 3 1 2 2 1 1 1 2 2 3 4 1 5 3 3 5 4 3 7 7 8 5 4 6 9 12 10 6 4 3 0 2 3 5 4 5 4 3
18 18 18 18 18 18 18 18 17 16 16 15 9 5 3 5 5 7 7 7 7 4 2 1 1 3 2 2 2 1 6 6 8 7 6 6 7 9 9 9 7 5 3 5 2 2 2 4 3 1 2 2 3 1 1 0 1 3 3 5 5 7 8 7 6 7 6 5 7 11 4 2 6 10 11 10 6 4 5 5 4 3 3 5 7 5 3
18 18 18 18 18 19 18 19 19 18 16 12 2 3 4 7 6 7 9 8 6 2 1 1 1 1 5 4 3 2 2 8 8 8 8 7 7 8 9 8 7 6 4 3 2 2 3 2 1 4 3 3 4 1 2 2 2 7 7 6 6 5 6 9 8 3 1 4 11 10 5 6 5 5 6 8 7 8 8 4 1 3 4 3 3 4 5
18 18 19 18 18 19 20 19 19 18 16 3 1 1 1 3 6 8 8 8 6 3 3 3 2 4 1 4 3 1 3 4 6 8 8 7 7 7 7 8 4 2 3 4 4 3 2 3 1 1 2 2 4 3 3 2 3 6 0 8 10 5 5 7 8 8 5 5 7 11 10 7 2 1 4 4 5 8 7 6 4 4 3 3 4 2 1
20 20 20 20 20 19 20 20 19 19 15 3 3 5 5 7 3 8 13 9 8 5 2 1 3 1 3 1 2 4 6 5 5 7 7 7 6 6 4 5 2 3 3 1 3 2 2 1 2 2 0 1 1 3 4 3 3 4 4 5 8 8 7 8 6 5 5 5 7 5 4 3 1 2 0 3 5 6 4 3 3 5 6 4 3 4 3
20 20 20 21 21 20 20 20 20 17 6 7 8 6 3 2 2 3 12 12 10 4 4 3 2 0 2 1 1 2 4 5 4 3 1 2 3 2 2 3 4 1 3 3 2 1 1 3 3 4 4 4 4 1 2 3 5 5 2 5 5 7 6 4 4 3 3 7 8 4 2 4 1 6 5 3 6 5 6 5 4 5 6 4 3 3 3
19 20 20 21 21 20 20 19 21 13 6 8 12 15 10 6 7 7 3 6 7 3 2 2 3 2 2 3 2 1 3 5 3 3 3 2 4 2 3 2 2 2 3 2 1 3 2 2 2 4 4 1 4 2 2 7 7 3 6 8 6 5 4 2 2 3 5 7 10 9 7 9 7 3 1 3 6 7 8 8 5 7 6 6 5 5 5
17 18 20 19 19 21 21 20 18 19 13 5 5 8 11 16 10 7 6 3 1 1 2 3 3 3 2 2 5 3 1 7 7 7 4 0 2 4 4 3 0 3 2 6 4 3 2 2 2 4 1 2 0 2 3 8 4 6 6 4 3 3 3 3 2 4 4 5 0 1 2 3 5 6 5 6 6 4 6 7 8 7 5 5 5 4 5
13 15 16 17 17 19 20 16 6 2 4 5 4 5 7 11 12 10 7 4 4 3 3 2 2 3 3 1 4 4 2 1 6 6 5 2 3 5 2 4 2 3 6 3 1 3 3 4 4 4 5 1 3 2 8 3 5 7 4 4 3 5 4 4 1 3 2 3 3 3 6 8 8 5 6 4 6 6 9 5 5 9 7 5 5 4 5
12 11 13 15 16 12 5 4 3 5 4 5 6 5 10 10 12 7 8 6 3 2 3 4 5 5 5 7 7 3 4 2 1 4 3 3 3 0 2 3 2 4 0 3 5 2 3 4 5 1 2 3 8 9 5 6 8 8 10 8 8 10 10 11 8 5 4 5 6 5 5 4 7 6 5 5 5 5 6 7 3 4 6 6 4 3 2
8 7 4 3 1 3 3 3 2 5 7 4 2 5 3 5 4 2 3 3 0 3 2 2 6 7 8 4 1 2 7 5 3 4 2 4 5 1 2 1 5 2 4 1 1 3 5 2 5 3 3 9 7 4 6 7 9 9 5 7 10 6 3 4 9 11 7 7 8 5 3 5 5 5 6 6 6 4 6 5 6 7 6 6 5 4 5
7 1 4 2 3 3 1 4 5 4 8 12 10 5 2 1 5 3 2 3 3 4 3 1 3 4 3 7 4 8 8 4 4 5 1 3 4 1 1 2 5 3 4 3 4 5 2 2 2 5 5 7 3 4 6 7 7 7 9 7 7 5 5 7 9 10 8 5 1 2 2 3 5 4 7 6 5 7 7 4 4 2 4 6 6 5 5
3 2 2 1 3 2 3 3 4 15 9 4 3 1 0 1 3 3 4 3 2 5 4 4 5 4 7 5 3 4 3 8 9 4 7 6 4 3 2 3 4 4 2 1 6 4 2 2 1 1 8 4 4 7 3 4 3 2 1 2 2 2 3 8 7 11 12 10 10 11 11 9 8 7 5 6 4 1 2 4 4 4 6 6 6 5 6
3 1 2 1 3 2 2 5 17 11 3 2 1 3 2 2 4 4 2 2 2 2 4 7 5 4 6 12 12 7 4 7 11 9 6 4 0 5 2 3 3 4 3 4 4 4 6 5 3 2 8 9 8 3 6 5 6 5 7 7 7 7 5 3 4 7 2 5 7 4 3 2 1 5 8 7 7 6 4 5 5 5 6 6 5 7 4
1 2 1 3 4 2 2 6 3 3 2 2 1 1 0 2 2 1 2 4 4 3 2 3 5 3 3 1 7 9 3 3 2 3 4 4 3 5 3 4 3 5 3 3 2 6 2 2 2 4 12 2 5 3 7 6 5 4 6 6 6 6 6 6 8 8 4 5 7 9 8 6 8 7 3 3 5 5 5 6 6 5 6 6 7 5 2
4 4 2 1 0 3 3 1 2 2 1 0 3 3 2 2 1 4 1 3 5 2 3 3 5 9 8 9 6 4 1 1 3 3 3 3 3 5 3 1 1 4 3 4 4 3 4 2 2 5 3 1 2 5 4 6 5 4 6 7 8 7 7 7 9 11 9 7 6 6 6 10 12 9 7 7 10 9 9 9 9 8 8 4 4 5 4
4 3 5 1 1 1 0 1 1 2 3 1 1 0 0 1 3 3 2 1 2 2 4 2 0 3 2 3 4 1 4 3 3 1 3 4 1 2 2 1 2 3 3 2 4 4 4 4 5 10 4 2 3 4 5 4 4 4 6 7 7 6 6 7 9 8 8 8 8 7 7 10 8 7 6 7 10 13 9 7 5 6 5 5 6 5 5
2 2 1 0 1 2 1 5 1 3 0 1 4 5 2 2 2 1 1 3 2 2 3 7 7 11 7 2 6 3 2 1 1 2 2 0 4 3 3 3 5 2 4 2 3 5 7 3 7 2 5 2 4 4 5 6 6 4 5 7 8 7 7 7 7 8 9 6 7 7 6 7 6 7 8 9 10 12 9 8 5 5 4 5 7 7 5
3 2 1 1 0 1 2 2 1 2 5 5 4 4 5 9 7 6 8 3 4 5 4 2 3 9 8 3 4 1 3 3 1 5 3 3 3 2 3 4 3 2 3 4 3 2 1 6 2 5 5 3 3 4 3 5 5 5 3 4 7 8 7 7 7 6 6 6 6 7 9 6 7 9 9 10 9 7 8 7 3 5 5 7 7 8 6
3 4 3 2 2 2 2 1 1 1 1 2 4 5 5 5 5 5 4 2 4 2 7 7 4 5 8 2 6 5 3 3 4 2 2 2 4 4 2 1 4 4 2 2 4 9 11 11 6 4 3 3 3 4 4 3 4 4 5 6 5 5 6 6 6 6 5 5 5 6 5 5 6 7 9 8 8 8 7 5 4 5 4 8 8 7 5
1 0 1 0 2 2 1 2 4 3 2 2 4 7 7 8 5 3 2 1 5 6 5 3 3 4 8 4 3 2 1 2 3 2 4 3 4 1 3 4 3 3 6 6 6 3 8 3 2 2 3 3 3 3 4 4 3 3 4 5 5 5 4 5 5 6 5 6 6 6 5 5 6 7 6 8 9 7 6 5 6 5 7 8 6 6 7
3 0 1 2 4 2 6 4 2 2 1 1 2 2 2 3 6 2 1 2 1 2 7 6 3 2 3 3 3 4 4 2 4 2 2 3 3 4 2 2 2 1 2 7 11 5 3 3 1 3 2 3 3 3 3 5 5 4 2 3 6 6 5 4 5 5 5 5 5 5 5 6 6 7 9 10 9 8 6 6 6 6 8 7 7 8 8
3 2 1 1 0 0 2 1 4 8 1 3 1 3 2 6 3 2 6 5 1 8 4 5 5 5 1 0 2 2 2 2 4 4 3 3 3 4 4 5 4 4 2 0 0 4 2 3 2 2 2 3 4 3 3 3 4 4 3 1 3 4 4 4 5 4 4 4 3 5 7 5 6 7 7 8 11 8 6 6 7 7 6 6 7 8 8
3 3 5 4 1 0 3 3 1 3 3 2 3 3 6 4 4 3 6 5 5 1 1 4 2 4 1 2 1 0 1 0 2 2 4 3 2 2 4 1 3 6 4 3 2 2 3 3 3 4 4 3 4 4 3 3 3 3 4 2 2 3 3 4 4 4 4 3 4 5 5 7 6 7 9 10 8 6 7 8 7 7 7 5 7 8 9
3 5 4 2 1 1 4 3 3 1 1 3 5 5 6 3 3 2 7 5 8 1 2 3 3 3 2 2 1 2 3 2 3 2 4 4 3 1 3 6 1 2 0 1 1 2 3 3 3 2 3 3 3 3 3 3 3 2 2 3 3 4 3 4 4 5 5 4 5 7 9 8 7 8 7 7 8 9 10 10 8 7 7 7 7 8 9
3 4 3 3 5 4 3 2 2 5 3 2 3 6 6 3 6 6 7 5 3 7 7 1 3 2 2 4 3 1 2 4 1 3 4 2 2 2 2 3 2 2 3 3 3 3 3 3 3 3 3 3 4 4 3 3 3 3 2 2 3 4 5 5 5 4 5 6 6 7 6 5 4 5 5 7 8 10 11 8 6 5 7 7 6 6 7
Wind_Direction
270 271 273 277 280 282 286 289 290 301 337 263 234 166 228 213 236 60 157 157 161 178 206 186 191 202 222 264 319 313 198 216 186 178 200 221 238 261 256 217 202 211 173 168 178 166 194 180 206 199 214 227 203 193 180 155 164 168 178 143 321 93 106 172 282 272 315 338 340 15 31 76 58 353 121 147 208 197 205 202 167 197 275 190 264 252 254
272 269 268 270 274 277 281 281 280 280 297 281 238 197 211 225 234 227 192 172 167 183 199 192 192 232 231 222 233 237 265 197 194 217 195 199 208 224 234 266 237 248 192 170 187 175 213 212 200 221 200 244 198 190 183 163 176 168 190 169 184 153 246 140 125 335 341 347 345 7 345 46 208 193 208 209 208 167 203 86 143 260 231 160 167 249 266
264 264 265 267 268 273 277 279 273 261 265 282 278 245 171 202 270 222 178 206 181 198 183 191 185 200 204 190 217 225 245 212 217 206 211 199 221 214 229 227 131 225 163 205 177 189 204 203 214 201 188 224 206 185 184 182 181 196 183 173 167 179 154 153 183 215 231 231 205 188 178 204 213 246 186 201 202 200 123 235 221 223 250 137 224 251 244
262 259 259 261 264 268 273 276 270 259 261 289 266 267 228 178 229 173 209 214 232 203 189 183 181 194 185 191 217 215 232 234 208 207 221 211 216 227 252 228 238 260 216 219 194 199 216 213 160 193 214 221 284 208 183 187 187 186 150 159 154 141 165 179 190 209 232 241 242 183 140 92 182 216 187 206 207 200 203 231 221 225 191 185 228 233 274
257 258 257 259 262 262 268 274 273 253 242 226 220 264 247 171 209 172 194 182 230 219 188 182 173 201 175 204 175 207 216 217 226 179 228 209 214 216 225 217 209 222 237 229 235 222 211 224 184 195 194 237 221 315 191 193 193 158 134 156 98 98 163 214 207 212 232 241 230 183 163 184 203 197 207 202 194 195 196 202 226 157 89 253 246 188 241
259 259 257 256 257 256 258 272 275 265 237 142 207 253 211 226 223 196 186 186 193 219 209 180 186 197 187 215 174 208 208 207 219 183 221 214 207 206 219 224 225 225 217 216 231 228 238 196 218 201 203 114 327 98 19 176 291 158 173 175 166 152 200 214 204 229 235 236 237 175 190 192 194 200 198 195 199 195 204 220 223 146 202 239 256 165 227
253 257 256 254 252 254 256 263 277 267 234 126 148 254 241 248 328 272 275 218 177 203 320 200 192 195 184 204 201 207 208 207 209 200 186 213 213 200 225 215 216 220 221 219 223 218 223 236 231 201 168 177 136 144 37 295 37 129 100 180 295 156 223 214 182 225 237 242 239 170 182 211 199 208 204 201 197 205 209 218 213 207 228 242 253 245 244
256 253 257 257 254 254 254 256 268 274 230 159 206 211 253 215 212 275 341 292 220 164 172 198 209 207 184 196 199 205 202 213 211 211 188 193 215 198 222 227 219 215 209 211 223 215 214 220 226 217 161 216 163 190 179 140 355 90 173 171 307 139 238 114 147 219 243 243 241 165 192 209 222 217 214 215 214 214 213 214 220 222 234 241 251 265 265
254 252 252 257 257 250 252 252 254 261 204 214 203 236 200 291 110 127 326 251 215 187 141 174 202 243 192 198 199 206 209 218 201 207 204 205 198 195 216 226 223 220 218 217 225 227 219 221 229 191 166 197 206 164 244 156 154 153 107 147 260 167 259 40 127 212 251 246 207 186 180 215 241 250 237 228 220 216 179 206 217 207 227 239 248 256 256
258 254 249 253 254 249 249 248 244 253 219 216 203 241 182 190 235 137 56 287 230 218 154 159 160 219 210 217 204 199 209 218 190 220 222 228 228 203 214 223 212 222 222 223 224 231 230 238 178 180 196 179 172 192 155 160 155 170 183 118 157 182 158 159 169 218 245 252 129 163 156 148 264 248 241 234 226 205 214 228 223 216 219 229 231 240 244
263 260 252 249 258 258 250 246 244 243 220 212 210 236 137 183 205 144 93 229 300 263 196 204 195 194 167 191 235 240 243 201 195 195 205 196 224 215 211 225 216 220 223 227 240 83 113 127 125 54 79 84 88 97 131 150 166 163 160 141 187 152 192 209 156 224 237 257 130 127 143 218 227 239 244 233 230 220 216 224 220 224 202 222 227 241 252
268 265 255 248 248 252 253 246 240 241 235 235 229 240 215 277 341 108 120 206 242 287 251 222 192 185 195 190 206 208 216 201 206 197 214 191 218 210 216 234 194 225 233 88 101 88 84 99 76 72 55 47 110 129 132 166 201 193 157 164 169 184 196 210 131 180 239 111 107 169 210 231 241 45 183 205 224 227 225 234 238 233 224 234 248 255 255
269 274 268 259 256 255 253 254 243 241 236 228 226 238 213 189 219 162 159 165 233 149 239 299 339 229 205 190 194 211 215 213 196 170 216 211 223 168 206 214 217 215 53 129 114 136 213 212 233 123 114 74 53 148 182 182 204 182 204 176 162 187 192 178 223 168 27 99 199 235 223 249 327 256 75 247 82 132 182 243 244 240 232 223 232 240 245
255 261 266 263 263 265 262 255 254 246 242 234 229 230 233 205 226 167 161 159 238 175 167 285 306 333 309 201 190 205 200 201 180 169 222 168 202 198 254 41 78 3 302 348 118 121 142 126 236 201 247 183 51 195 210 205 198 180 200 212 191 183 181 171 225 171 221 208 227 241 331 314 287 269 189 146 171 163 171 228 242 234 228 224 231 244 247
260 258 268 270 264 270 269 267 262 253 246 239 215 252 228 221 235 223 253 216 226 184 175 204 195 200 203 249 228 161 168 170 162 206 193 58 160 229 144 155 101 294 352 152 180 166 183 127 207 191 159 176 204 228 94 197 247 226 203 197 193 180 195 185 209 212 201 219 238 244 247 247 254 256 208 199 182 165 168 190 266 256 210 208 211 235 242
254 259 255 257 263 260 258 258 262 258 251 245 238 238 254 243 224 230 242 193 171 231 203 204 162 145 175 222 197 186 182 180 182 148 142 182 198 86 360 181 246 228 81 107 158 173 171 194 192 196 202 197 177 88 242 150 200 155 36 245 207 216 215 184 200 199 165 219 234 228 234 245 244 179 179 148 94 135 132 128 255 275 180 216 194 221 236
254 253 257 260 260 261 265 266 262 263 253 234 227 220 251 218 233 221 226 231 212 230 170 184 138 129 116 119 56 255 190 212 165 165 174 215 199 151 104 37 318 136 185 165 225 185 180 194 162 203 206 138 147 199 88 148 175 245 17 89 180 203 204 191 217 217 206 208 224 233 216 254 240 220 229 217 92 133 103 202 261 300 309 295 242 233 241
250 252 253 254 256 257 257 259 261 260 259 241 222 218 240 231 236 228 231 206 217 233 171 166 151 150 180 180 170 195 104 95 65 24 111 186 102 149 177 134 86 277 180 206 164 208 203 198 200 199 213 182 167 129 203 163 185 181 175 165 154 185 214 205 210 213 222 223 243 279 274 267 199 185 207 229 188 117 147 227 276 253 268 281 213 221 197
248 250 252 254 255 257 260 262 263 265 262 253 222 216 248 235 251 257 227 207 219 246 216 201 173 181 164 75 126 158 179 182 161 157 171 146 246 181 127 195 140 160 177 183 183 211 201 215 190 167 182 215 182 200 139 162 190 82 123 118 68 217 178 340 221 227 224 222 232 236 263 241 164 258 173 191 113 197 221 229 195 219 281 312 198 154 167
249 250 253 254 257 257 256 259 258 262 264 259 234 216 230 185 193 222 238 226 221 250 175 172 169 196 192 151 153 123 122 88 177 148 193 190 104 109 82 161 325 104 60 179 220 195 204 207 186 188 216 168 211 143 65 257 90 162 171 193 165 178 169 185 203 207 292 125 236 209 243 221 106 131 52 188 165 238 147 171 237 213 258 342 9 142 160
251 251 252 255 256 256 257 256 256 257 258 261 254 234 255 219 246 263 257 246 210 238 242 239 252 201 166 190 198 175 163 172 178 179 200 142 176 151 177 208 176 169 184 170 197 189 188 201 160 192 229 163 204 134 198 165 237 282 130 182 173 180 142 189 223 170 184 191 209 213 243 132 273 146 180 190 182 152 168 133 87 229 206 228 180 26 126
248 249 251 252 254 256 257 259 259 259 261 261 259 244 260 228 159 223 223 227 242 230 278 276 242 221 198 189 186 189 187 189 189 156 138 137 210 170 184 54 134 150 205 104 59 26 5 185 79 109 179 216 338 189 197 164 210 201 356 131 166 206 184 162 183 160 180 201 208 309 237 277 277 182 275 282 294 129 179 157 159 166 238 179 107 156 128
244 248 251 252 255 256 257 257 258 256 257 259 256 237 251 173 163 138 134 258 325 330 310 312 327 332 284 302 149 157 163 262 118 103 133 121 162 177 133 147 208 175 43 80 187 148 171 121 198 156 60 243 174 174 355 178 109 152 173 243 149 11 151 54 98 264 184 28 173 57 353 287 303 311 237 279 284 311 132 177 161 241 179 173 149 166 152
242 245 247 251 253 255 256 256 257 255 253 252 243 236 246 206 183 121 117 214 210 255 240 224 133 203 200 219 196 305 81 310 225 185 199 133 144 167 349 289 184 67 7 229 217 137 202 108 212 99 162 221 100 166 178 209 216 162 79 294 329 285 114 72 120 207 124 252 115 159 265 304 293 303 302 249 224 256 261 241 54 2 125 95 63 143 158
242 242 245 247 250 252 253 254 254 255 253 254 254 262 262 245 189 161 148 195 214 199 229 182 220 225 245 68 108 115 218 197 119 101 88 101 147 168 184 177 148 157 183 173 195 78 29 112 241 83 158 259 115 230 243 112 260 148 162 246 114 294 182 76 177 116 158 230 134 273 287 254 277 263 305 293 274 255 172 58 51 59 55 75 57 91 95
247 246 246 247 249 251 252 253 253 254 254 252 236 210 236 234 183 175 156 86 68 211 236 231 224 66 331 109 152 205 173 139 144 105 102 134 128 140 134 121 59 34 98 89 83 116 138 64 102 226 142 271 99 164 180 213 153 9 143 221 195 182 114 202 161 123 150 344 285 273 308 300 267 260 248 241 245 280 328 60 66 93 91 75 46 54 143
250 250 251 251 252 253 252 252 252 252 253 250 239 209 231 254 197 177 172 167 172 253 219 241 181 310 293 190 228 87 127 142 125 115 97 92 103 103 113 119 115 89 99 67 34 103 56 116 144 193 185 226 74 154 113 50 121 166 177 257 127 92 158 190 96 88 204 197 197 166 135 243 233 234 233 233 223 201 250 104 131 124 129 123 94 50 35
243 245 247 248 248 251 254 252 250 250 248 250 244 212 181 241 230 216 187 163 182 238 321 323 23 247 97 356 283 189 139 137 136 128 124 119 118 123 127 130 125 124 121 119 94 92 163 158 223 204 65 281 70 322 112 286 43 3 227 233 192 154 194 149 168 177 220 218 172 187 168 190 216 210 218 212 199 170 205 223 197 175 172 158 128 116 94
245 245 246 247 248 247 250 252 251 248 246 248 217 212 248 228 229 219 210 189 162 121 127 249 329 40 162 221 112 125 126 135 137 134 132 133 129 130 133 140 137 149 115 84 121 116 137 193 122 141 179 225 102 230 129 153 185 227 230 169 177 223 174 174 180 129 264 189 175 189 172 199 233 228 215 204 186 176 205 199 146 171 174 176 141 154 146
244 245 244 245 246 246 245 247 249 246 241 193 225 254 285 268 206 200 197 193 166 130 169 174 172 230 21 40 330 233 121 120 126 129 132 133 131 133 140 129 133 134 122 156 157 140 197 132 203 279 299 324 128 202 108 237 235 259 226 161 191 182 186 192 160 153 207 198 177 187 197 220 234 219 224 208 172 171 188 195 168 162 190 161 148 181 198
243 243 244 245 245 244 243 243 245 243 236 153 164 215 217 243 236 192 178 181 164 150 212 238 206 65 23 254 121 165 151 134 131 135 142 137 141 140 155 98 78 122 95 108 77 214 127 88 163 229 81 329 103 129 185 164 242 288 260 196 183 189 195 203 198 184 145 161 177 183 196 229 345 80 360 179 180 169 154 121 167 163 151 138 164 168 165
245 244 243 243 243 243 242 241 240 240 216 162 207 203 199 192 113 3 186 171 150 147 177 144 206 100 230 173 219 223 124 123 105 93 101 126 85 104 72 97 165 126 127 133 206 70 250 210 114 184 137 221 127 87 138 136 210 243 211 190 226 202 200 157 172 229 174 150 117 88 201 248 194 171 231 192 166 162 152 136 138 133 131 116 105 82 102
246 245 243 242 240 240 240 241 241 233 194 212 221 250 261 147 108 73 213 161 153 191 178 191 199 198 195 227 104 320 147 98 63 129 159 287 140 126 102 103 70 59 306 100 259 168 232 117 162 141 232 78 113 184 158 213 230 176 180 195 198 203 188 202 174 166 158 168 161 164 197 199 214 205 87 126 133 143 130 124 129 115 109 112 112 101 84
244 243 241 238 236 235 235 234 235 240 234 210 236 226 238 242 233 175 139 147 147 204 144 165 166 123 143 50 58 249 202 154 158 149 132 55 166 100 178 96 76 130 292 134 246 80 317 81 118 191 40 9 226 74 252 244 165 167 195 222 195 130 120 113 143 170 181 169 68 55 150 107 93 99 85 97 93 82 106 116 125 115 131 132 137 137 141
246 249 244 237 235 235 234 232 224 170 208 226 230 246 229 224 216 205 165 137 181 197 175 205 140 135 117 58 159 181 133 96 153 168 128 168 62 148 175 102 246 117 255 118 50 152 161 186 181 119 216 195 73 213 238 190 153 178 184 197 178 128 93 103 237 181 98 69 79 87 113 127 111 109 131 121 118 133 124 126 138 134 130 149 140 147 149
249 243 240 235 229 220 221 223 162 192 194 204 219 183 190 206 204 191 160 141 160 240 182 195 143 174 168 159 178 186 125 54 111 64 117 128 48 343 107 122 114 233 232 97 191 151 164 230 97 232 214 130 216 210 219 163 173 185 187 185 186 170 183 182 158 127 83 70 85 88 96 115 135 145 128 131 129 128 131 122 96 106 132 143 165 150 89
251 248 248 245 50 76 177 193 160 187 208 172 142 114 128 113 20 60 91 108 196 117 216 228 166 182 162 181 77 192 136 158 155 94 121 109 158 121 85 82 173 197 60 334 188 144 231 69 113 179 196 197 236 167 177 175 169 182 197 199 193 197 146 113 135 124 94 71 64 50 83 116 108 128 127 146 157 138 121 145 158 142 151 168 163 151 179
235 118 84 93 115 139 170 195 203 210 164 136 123 83 321 12 170 181 185 188 191 141 208 266 245 162 83 112 163 186 138 159 106 131 114 214 116 290 161 128 219 127 159 198 220 181 98 64 163 187 260 251 245 208 183 166 195 188 192 187 183 181 152 141 133 121 129 111 97 104 72 99 144 172 152 174 156 166 188 171 162 156 133 143 155 148 122
70 93 92 153 142 204 185 254 152 128 122 43 76 64 275 213 175 211 224 176 165 196 203 172 220 162 145 122 92 135 176 153 153 172 157 194 121 205 126 132 265 83 271 91 282 128 98 263 266 171 252 231 201 226 207 190 134 51 21 26 40 89 130 166 156 146 165 184 191 187 169 172 180 210 203 172 166 118 131 129 119 114 113 118 120 113 105
89 91 146 155 200 225 222 181 144 121 97 102 287 115 203 215 179 239 183 189 252 236 162 200 189 188 190 162 149 180 232 157 161 171 161 136 260 161 175 84 258 105 210 166 222 108 136 181 207 133 277 239 228 169 146 154 112 30 16 10 14 12 15 63 34 348 47 63 52 67 22 11 176 173 183 177 161 147 101 75 73 76 86 93 93 95 99
155 103 102 192 215 197 221 137 65 53 106 125 63 347 93 349 284 228 127 195 196 239 167 171 139 158 190 112 155 160 164 69 358 66 113 159 221 95 109 174 218 99 226 149 232 85 112 58 194 184 240 257 120 151 133 96 79 48 25 13 18 22 31 46 38 11 45 75 57 46 33 34 53 46 44 111 130 120 111 103 81 69 72 76 82 88 84
181 165 189 299 100 86 38 19 122 100 27 193 130 216 193 220 60 16 180 163 197 204 221 154 170 176 185 168 179 120 83 175 130 139 118 152 219 121 199 135 28 121 201 210 104 81 98 150 193 250 221 161 314 1 67 88 32 29 20 17 22 24 31 42 47 26 25 68 76 70 58 48 49 48 23 52 85 87 88 84 78 55 70 81 83 73 64
164 105 75 38 37 36 166 40 295 127 130 97 83 258 277 115 212 168 200 177 331 92 245 46 266 88 354 66 30 6 162 163 125 180 107 168 116 63 108 164 151 125 211 100 104 147 145 194 214 232 131 126 21 21 34 32 23 44 46 33 24 26 51 63 60 60 43 43 59 65 56 56 58 46 47 75 93 84 65 64 66 88 82 83 78 66 53
76 74 142 76 67 278 143 199 174 66 346 159 159 190 164 183 297 45 72 266 218 195 232 145 182 146 183 168 137 141 64 20 176 84 35 95 86 159 155 174 183 195 61 55 164 170 194 214 221 161 133 96 42 19 8 6 6 9 51 36 30 32 51 73 80 83 73 66 65 66 68 69 77 57 52 54 65 95 99 75 62 79 85 87 74 66 52
126 177 74 36 334 207 107 238 102 166 188 201 171 185 166 184 196 175 187 226 120 219 171 144 209 163 153 196 65 360 144 171 164 111 199 136 111 195 132 191 139 85 123 178 150 186 106 242 188 94 153 113 43 8 4 7 3 356 351 40 30 28 35 61 68 73 71 60 56 54 57 52 69 68 57 59 47 45 78 82 56 86 82 84 80 69 41
170 170 130 156 223 231 194 212 133 214 265 141 197 184 168 209 153 202 243 121 148 140 130 179 164 148 154 228 145 177 118 134 107 188 139 113 147 204 189 71 63 105 179 139 151 193 204 210 156 131 66 44 25 10 13 351 357 353 33 49 22 25 22 30 47 63 70 80 76 73 72 52 64 82 77 62 52 47 51 50 49 81 96 84 72 73 48
86 10 154 259 229 219 165 193 207 201 179 180 199 169 173 187 193 181 212 151 163 187 136 103 129 174 160 198 103 16 97 142 138 199 97 113 162 145 36 112 188 175 163 186 184 202 219 174 61 55 31 15 12 14 11 15 360 32 45 47 41 44 38 43 42 55 68 77 86 84 81 81 84 86 99 79 59 50 47 50 51 57 79 90 91 84 77
187 254 106 179 211 161 174 219 175 96 6 190 218 213 215 138 118 171 342 348 278 125 135 127 96 53 29 300 51 146 145 148 110 275 156 162 57 46 164 93 183 178 175 168 206 186 93 32 38 37 26 36 16 13 10 15 21 27 34 49 42 41 45 46 48 47 60 81 85 89 82 82 95 97 90 95 87 60 51 51 55 60 76 83 85 84 87
88 98 165 196 283 59 326 337 134 140 220 327 336 48 63 138 142 19 323 324 191 175 198 134 170 121 222 52 111 148 215 228 133 195 83 40 130 182 150 184 156 168 249 76 171 42 32 46 61 78 49 44 38 25 6 356 15 16 29 72 57 43 48 59 64 69 74 80 97 106 103 105 104 101 98 90 83 67 54 60 64 65 67 85 94 96 92
72 45 23 28 33 153 311 309 66 139 324 352 21 26 349 71 71 21 352 347 321 319 115 50 21 87 194 114 123 181 280 20 160 101 77 186 174 189 92 139 215 180 169 61 32 31 19 338 10 39 33 29 30 22 0 344 13 11 22 31 93 93 55 58 68 64 57 79 90 93 101 97 94 93 97 96 101 106 82 66 61 67 67 70 89 90 87
54 83 92 355 337 272 355 125 155 229 351 19 360 356 346 11 20 343 360 349 311 266 106 161 189 111 104 74 138 127 253 164 75 118 147 136 10 344 205 191 174 16 320 77 56 33 25 6 10 357 6 349 15 355 4 345 4 2 19 20 61 103 105 79 74 77 74 76 94 96 92 91 98 104 110 116 116 104 85 64 53 59 65 62 59 75 81
72 83 100 76 56 35 303 280 71 67 64 20 1 347 331 332 352 318 321 315 288 174 193 179 107 139 122 181 201 153 46 50 87 116 60 50 1 213 143 150 109 49 39 47 30 32 28 18 24 13 14 346 353 359 345 342 31 24 55 33 40 78 100 101 94 92 103 95 85 91 94 98 106 108 108 98 89 80 75 69 43 52 67 70 69 72 83